Location: �terpigny
(49.8910°N, 2.9249°E)
Time: 10:01:15
(UTC+00:00)

DIWATA 2B (PO-101) - Pass Details

Date: 26 June 2022
Orbit: 583 x 599 km, 98.0° (Epoch: 14 August)

Event Time Altitude Azimuth Distance (km) Brightness Sun altitude
Exits shadow 02:34:00 11° 216° (SW) 1,881 ? -8.3°
Maximum altitude 02:37:10 23° 267° (W) 1,304 ? -8.0°
Drops below altitude 10° 02:40:31 10° 320° (NW) 1,950 ? -7.7°
Sets 02:43:06 0° 335° (NNW) 2,859 ? -7.4°
